Regional Weather Roundup
Issued by NWS

Home | Current Version | Previous Version | Graphics & Text | Print | Product List | Glossary On
Versions: 1 2 3 4 5 6 7 8 9 10 11 12 13 14 15 16 17 18 19 20 21 22 23 24 25 26 27 28 29 30 31 32 33 34 35 36 37 38 39 40 41 42 43 44 45 46 47 48 49 50
000
ASUS43 KMKX 200100
RWRWI

WISCONSIN REGIONAL WEATHER ROUNDUP
NATIONAL WEATHER SERVICE MILWAUKEE/SULLIVAN WI
800 PM CDT FRI SEP 19 2014

NOTE: "FAIR" INDICATES FEW OR NO CLOUDS BELOW 12,000 FEET WITH NO
SIGNIFICANT WEATHER AND/OR OBSTRUCTIONS TO VISIBILITY.

WIZ001-002-006>008-014>016-023>028-200200-
NORTHWEST WISCONSIN

CITY           SKY/WX    TMP DP  RH WIND       PRES   REMARKS
SUPERIOR ARPT  PTCLDY    61  60  97 SW5       29.63S
ASHLAND        CLOUDY    65  59  81 SW12      29.65S
HAYWARD        CLOUDY    65  61  87 SW5       29.69R
SIREN          CLOUDY    64  63  94 S5        29.68S
RICE LAKE      CLOUDY    70  59  69 SE8       29.71S
LADYSMITH      CLOUDY    68  58  69 S10       29.74F
EAU CLAIRE     NOT AVBL
MENOMONIE      MOCLDY    73  61  65 S12G22    29.70F
NEW RICHMOND   CLOUDY    68  62  81 CALM      29.68F
OSCEOLA        LGT RAIN  67  66  97 SE5       29.70F
$$

WIZ003>005-009-010-017-018-200200-
NORTH CENTRAL WISCONSIN

CITY           SKY/WX    TMP DP  RH WIND       PRES   REMARKS
WOODRUFF       CLOUDY    64  54  69 S14       29.73F
RHINELANDER    CLOUDY    64  53  67 S10       29.77F
EAGLE RIVER    CLOUDY    64  51  61 S12G18    29.74F
LAND O LAKES   MOCLDY    64  53  65 S10G21    29.72F
PHILLIPS       CLOUDY    65  56  74 S13       29.71F
TOMAHAWK       CLOUDY    64  54  69 S5        29.78S
MEDFORD        CLOUDY    65  55  71 S12       29.77F
MERRILL        CLOUDY    66  55  68 S8        29.78F
$$

WIZ029-030-035-036-043>047-200200-
CENTRAL WISCONSIN

CITY           SKY/WX    TMP DP  RH WIND       PRES   REMARKS
WAUSAU         CLOUDY    67  53  61 S16       29.78F
MOSINEE        MOCLDY    66  55  68 SW10      29.84R
MARSHFIELD     CLOUDY    66  55  67 S13       29.80S
STEVENS POINT  PTCLDY    65  51  59 SW9       29.83R
WAUPACA        PTCLDY    69  51  52 S13G18    29.81S
WAUTOMA        NOT AVBL
WISC RAPIDS    PTCLDY    67  53  61 SW10      29.84R
CAMP DOUGLAS   NOT AVBL
$$

WIZ011>013-019>022-031-037>040-048>050-200200-
NORTHEAST WISCONSIN

CITY           SKY/WX    TMP DP  RH WIND       PRES   REMARKS
ANTIGO         CLOUDY    63  53  70 SW9       29.83R
STURGEON BAY   MOCLDY    61  52  72 S21       29.82F
GREEN BAY      MOCLDY    67  51  56 S15G22    29.82S
MANITOWOC      NOT AVBL
APPLETON       MOCLDY    66  48  52 S15G23    29.84S
CLINTONVILLE   PTCLDY    68  50  52 S14       29.80S
OSHKOSH        PTCLDY    67  51  56 S14       29.84S
$$

WIZ032>034-041-042-053>061-200200-
SOUTHWEST WISCONSIN

CITY           SKY/WX    TMP DP  RH WIND       PRES   REMARKS
LA CROSSE      CLEAR     70  57  63 S9        29.80R
SPARTA         NOT AVBL
VIROQUA        FAIR      67  54  62 S14G21    29.82R
BOSCOBEL       PTCLDY    72  54  53 S9G22     29.82F
PRAIRIE DU CHI CLEAR     71  53  51 S13       29.81F
PLATTEVILLE    FAIR      67  54  62 CALM      29.89F
$$

WIZ056-057-062-063-064-067-068-200200-
SOUTH CENTRAL WISCONSIN

CITY           SKY/WX    TMP DP  RH WIND       PRES   REMARKS
BARABOO/DELLS  CLEAR     68  49  51 S17G26    29.82F
LONE ROCK      NOT AVBL
WATERTOWN      CLEAR     65  50  58 S10       29.89F
MADISON        MOCLDY    69  53  56 S14       29.87F
MIDDLETON      FAIR      69  50  51 S12G17    29.87F
MONROE         PTCLDY    66  54  63 S16       29.91S
JANESVILLE     CLEAR     70  48  46 S16G22    29.92F
$$

WIZ051-052-058>065-066-070>072-200200-
SOUTHEAST WISCONSIN

CITY           SKY/WX    TMP DP  RH WIND       PRES   REMARKS
MILWAUKEE      MOCLDY    64  49  57 S13       29.92F
WAUKESHA       NOT AVBL
MILWAUKEE/TIMM CLEAR     66  45  45 S12       29.92F
RACINE         PTCLDY    63  51  65 S9        29.96F
BURLINGTON     PTCLDY    62  47  59 S8        29.94F
KENOSHA        PTCLDY    64  47  53 S8        29.96F
FOND DU LAC    PTCLDY    67  49  52 S16       29.86S
SHEBOYGAN      PTCLDY    62  51  67 S16       29.87F
WEST BEND      PTCLDY    64  46  52 S9G16     29.89F
JUNEAU         CLEAR     66  50  56 S14       29.89F
$$

LSZ147-162-200200-
LAKE SUPERIOR

STATION/POSITION TIME  TEMP    WIND        PRES    WAVE
                       AIR SEA DIR/SP/G            HT/PER
                 (UTC) (F)     (DEG/KT/KT) (MB)    (FT/S)
W MID LAKE BUOY  2350   54 47  220/  8/ 10 1003.4F   2/ 4
DEVILS ISLAND    0000   62     220/  8/  9 1003.1F
PORT WING        0040   65     240/  5/ 12 1004.1S
SAXON HARBOR     0000   69     200/ 12/ 19 1003.4F
$$

LMZ867-665-643>646-200200-
LAKE MICHIGAN

STATION/POSITION TIME  TEMP    WIND        PRES    WAVE
                       AIR SEA DIR/SP/G            HT/PER
                 (UTC) (F)     (DEG/KT/KT) (MB)    (FT/S)
N MID LAKE BUOY  2350   62 58  190/ 27/ 35 1009.7F   9/ 7
NORTHPORT PIER   0000   61     160/ 14/ 23 1009.5F
SISTER BAY       2312          190/ 27/ 37   N/A
KEWAUNEE LAKESHO 0000   60     180/ 19/ 22 1010.1F
SHEBOYGAN LAKESH 0000   60 54  180/ 25/ 26 1012.3F
PORT WASHINGTON  0040   60     190/ 10/ 15 1012.9F
ATWATER BUOY     0000   61     160/ 14/ 17 1014.8F
MILWAUKEE LAKESH 0000   62     160/ 13/ 14   N/A
S MID LAKE BUOY  2350   67 64  160/ 16/ 19 1015.4F   2/ 4
KENOSHA   LAKESH 0000   63     180/  9/ 13 1014.6F
$$

TC  - TEMPERATURE IN CELSIUS
VSB - VISIBILITY IN STATUTE MILES
WCI - WIND CHILL INDEX
HX  - HEAT INDEX



USA.gov is the U.S. government's official web portal to all federal, state and local government web resources and services.